sat.trackr.live / text

‹ back to catalog

STARLINK-3287

NORAD 50172 · 2021-125S

PAYLOAD ACTIVE UNKNOWN

§ Identity

Operator
Country
US
Launch date
2021-12-18
Launch site
AFWTR
Launch vehicle
Mass (kg)
RCS (m²)

Purposes: comms

External: N2YO · Heavens-Above · Gunter

§ Orbital elements

Epoch: 2026-09-09T22:50:56.509152Z

Period
93.85 min
Inclination
53.1609°
Eccentricity
0.0001573
Mean motion
15.34315003 rev/d
Perigee alt
461.9 km
Apogee alt
464.0 km
Semi-major
6,841.1 km
B*
3.6951e-4
RAAN
132.6829°
Arg perigee
91.7290°
Mean anomaly
268.3893°
Rev number
26,457

§ Raw data

STARLINK-32871 50172U 21125S   26252.95204293  .00012095  00000+0  36951-3 0  99902 50172  53.1609 132.6829 0001573  91.7290 268.3893 15.34315003264574

JSON: /api/v1/satellites/50172 · /tle

For live sub-satellite position, see the globe view (requires WebGL).

§ Visibility from observer

Set your observer location to see the next 7 days of passes ≥ 10°. The values pass through the URL so the page stays shareable.

No JS? Fill the form by hand. The geolocation button needs JavaScript.